EW4462 Weather Reports


Display with metric or nautical units.
time (UTC)temp
F
wind
direction
speed
MPH
gust
MPH
rain 1hr
in
rain 24hr
in
rain mn
in
humidity
%
barometer
mb
20260506041831 59 103 0.0 0.0 0.00 0.27 0.27 78 1018.0
20260506040816 59 103 0.0 0.0 0.00 0.27 0.27 77 1017.9
20260506035834 60 103 0.0 0.0 0.00 0.27 0.27 76 1017.7
20260506033655 60 103 0.0 0.0 0.00 0.27 0.27 75 1017.4
20260506031508 61 103 0.0 0.0 0.00 0.27 0.27 74 1017.1
20260506030507 61 103 0.0 0.0 0.00 0.27 0.27 73 1017.1
20260506025454 61 103 0.0 0.0 0.00 0.27 0.27 72 1016.9
20260506023304 62 159 0.0 1.0 0.00 0.27 0.27 71 1016.7
20260506022252 62 101 0.0 0.0 0.00 0.27 0.27 70 1016.7
20260506021239 63 114 0.0 0.0 0.00 0.27 0.27 69 1016.5
20260506020225 64 113 0.0 0.0 0.00 0.27 0.27 67 1016.4
20260506015242 64 109 0.0 1.0 0.00 0.27 0.27 66 1016.3
20260506014304 65 157 0.0 1.0 0.00 0.27 0.27 65 1016.2
20260506012151 65 120 0.0 0.0 0.00 0.27 0.27 65 1016.1
20260506011129 64 115 0.0 0.0 0.00 0.27 0.27 65 1015.8
20260506010059 65 148 0.0 0.0 0.00 0.27 0.27 63 1016.0
20260506005055 65 130 0.0 0.0 0.00 0.27 0.27 62 1016.1
20260506004043 65 161 0.0 0.0 0.00 0.27 0.27 63 1016.0
20260506003037 66 98 0.0 0.0 0.00 0.27 0.27 63 1015.9
20260506002027 66 84 0.0 0.0 0.00 0.27 0.27 63 1016.0
20260506001019 67 132 0.0 1.0 0.00 0.27 0.27 61 1015.9
20260505234853 68 75 0.0 0.0 0.00 0.27 0.27 60 1015.9
20260505233847 68 148 0.0 0.0 0.00 0.27 0.27 60 1015.9
20260505232844 67 102 0.0 0.0 0.00 0.27 0.27 60 1015.9
20260505231854 67 117 0.0 0.0 0.00 0.27 0.27 63 1015.9
20260505230912 67 114 0.0 6.0 0.00 0.27 0.27 62 1015.9
20260505225901 68 90 0.0 1.0 0.00 0.27 0.27 60 1016.0
20260505224849 68 57 0.0 5.0 0.00 0.27 0.27 60 1016.0
20260505223822 68 115 0.0 4.0 0.00 0.27 0.27 60 1016.0
20260505222807 68 117 0.0 0.0 0.00 0.27 0.27 57 1016.1
20260505221743 68 120 0.0 0.0 0.00 0.27 0.27 59 1016.2
20260505220735 68 115 0.0 0.0 0.00 0.27 0.27 59 1016.2
20260505215710 68 114 0.0 0.0 0.00 0.27 0.27 58 1016.3
20260505214638 68 98 0.0 3.0 0.00 0.27 0.27 58 1016.3
20260505213611 68 82 0.0 4.0 0.00 0.27 0.27 61 1016.4
20260505212541 68 115 0.0 0.0 0.00 0.27 0.27 55 1016.4
20260505211547 68 134 0.0 4.0 0.00 0.27 0.27 57 1016.5
20260505210538 68 122 0.0 0.0 0.00 0.27 0.27 57 1016.6
20260505205553 68 88 0.0 0.0 0.00 0.27 0.27 58 1016.6
20260505204611 67 135 0.0 0.0 0.00 0.27 0.27 60 1016.7
20260505203622 67 67 0.0 6.0 0.00 0.27 0.27 61 1016.6
20260505201454 68 105 0.0 0.0 0.00 0.27 0.27 63 1016.6
20260505200514 67 69 0.0 4.0 0.00 0.27 0.27 65 1016.6
20260505194308 67 102 0.0 0.0 0.00 0.27 0.27 64 1016.6
20260505190923 66 157 0.0 3.0 0.00 0.27 0.27 59 1016.7
20260505185855 66 126 0.0 0.0 0.00 0.27 0.27 62 1016.8
20260505181444 65 156 0.0 2.0 0.00 0.27 0.27 67 1016.9
20260505180436 65 170 0.0 0.0 0.00 0.27 0.27 67 1016.8
20260505175430 64 114 0.0 9.0 0.00 0.27 0.27 67 1016.6
20260505174433 64 107 0.0 0.0 0.00 0.26 0.27 68 1016.6
20260505173433 63 170 0.0 0.0 0.00 0.26 0.27 70 1016.5
20260505172456 63 132 0.0 0.0 0.00 0.26 0.27 73 1016.4
20260505171433 61 158 0.0 0.0 0.00 0.26 0.27 78 1016.4
20260505170433 60 109 0.0 0.0 0.00 0.26 0.27 81 1016.3
20260505165415 60 181 0.0 0.0 0.00 0.26 0.27 84 1016.1
20260505163240 59 116 0.0 0.0 0.00 0.26 0.27 88 1015.9
20260505162305 58 157 0.0 3.0 0.00 0.26 0.27 90 1015.8
20260505161226 59 152 0.0 0.0 0.00 0.26 0.27 91 1015.7
20260505160242 59 134 0.0 0.0 0.00 0.26 0.27 92 1015.6
20260505150927 58 220 0.0 0.0 0.00 0.26 0.27 93 1015.5
20260505124836 57 260 0.0 0.0 0.00 0.19 0.20 92 1014.2
20260505123839 57 260 0.0 0.0 0.00 0.19 0.20 92 1014.3
20260505122825 57 260 0.0 0.0 0.05 0.19 0.20 92 1014.3
20260505115528 57 252 0.0 0.0 0.00 0.03 0.04 91 1014.1
20260505112241 57 157 0.0 0.0 0.00 0.02 0.02 90 1014.1
20260505111244 57 157 0.0 0.0 0.00 0.02 0.02 89 1014.2
20260505102139 58 160 0.0 0.0 0.00 0.01 0.01 88 1014.4
20260505101128 58 160 0.0 0.0 0.00 0.01 0.01 88 1014.6
20260505100109 58 160 0.0 0.0 0.00 0.01 0.01 87 1014.5
20260505095102 58 160 0.0 0.0 0.00 0.01 0.01 87 1014.6
20260505094110 58 160 0.0 0.0 0.00 0.01 0.01 86 1014.7
20260505093110 58 160 0.0 0.0 0.00 0.00 0.00 86 1014.7
20260505092116 59 161 0.0 0.0 0.00 0.00 0.00 86 1014.8
20260505091107 59 163 0.0 0.0 0.00 0.00 0.00 86 1014.8
20260505085000 59 163 0.0 0.0 0.00 0.00 0.00 82 1015.0
20260505083949 59 163 0.0 0.0 0.00 0.00 0.00 82 1015.0
20260505082942 59 163 0.0 0.0 0.00 0.00 0.00 81 1015.2
20260505081937 59 163 0.0 0.0 0.00 0.00 0.00 81 1015.2
20260505075840 59 163 0.0 0.0 0.00 0.00 0.00 78 1015.5
20260505074828 60 163 0.0 0.0 0.00 0.00 0.00 81 1015.5
20260505073809 60 136 0.0 0.0 0.00 0.00 0.00 82 1015.5
20260505072737 60 159 0.0 0.0 0.00 0.00 0.00 84 1015.6
20260505071800 60 159 0.0 0.0 0.00 0.00 0.00 84 1015.6
20260505065714 60 159 0.0 0.0 0.00 0.00 0.00 84 1015.7
20260505064721 60 159 0.0 0.0 0.00 0.00 0.00 84 1015.8
20260505063736 60 159 0.0 0.0 0.00 0.00 0.00 84 1015.8
20260505062746 60 159 0.0 0.0 0.00 0.00 0.00 84 1015.9
20260505061731 60 159 0.0 0.0 0.00 0.00 0.00 84 1015.9
20260505060741 60 159 0.0 0.0 0.00 0.00 0.00 84 1015.9
20260505054545 60 159 0.0 0.0 0.00 0.00 0.00 83 1016.2
20260505053543 60 159 0.0 0.0 0.00 0.00 0.00 83 1016.2
20260505052516 61 68 0.0 0.0 0.00 0.00 0.00 82 1016.3
20260505051445 61 94 0.0 0.0 0.00 0.00 0.00 81 1016.5
20260505050419 61 111 0.0 1.0 0.00 0.00 0.00 81 1016.4